Year,Month,Day,Hour,Minute,Value (Times are PST for insolation in W/m^2)
2007,10,06,00,00,0.00
2007,10,06,00,01,0.00
2007,10,06,00,02,0.00
2007,10,06,00,03,0.00
2007,10,06,00,04,0.00
2007,10,06,00,05,0.00
2007,10,06,00,06,0.00
2007,10,06,00,07,0.00
2007,10,06,00,08,0.00
2007,10,06,00,09,0.00
2007,10,06,00,10,0.00
2007,10,06,00,11,0.00
2007,10,06,00,12,0.00
2007,10,06,00,13,0.00
2007,10,06,00,14,0.00
2007,10,06,00,15,0.00
2007,10,06,00,16,0.00
2007,10,06,00,17,0.00
2007,10,06,00,18,0.00
2007,10,06,00,19,0.00
2007,10,06,00,20,0.00
2007,10,06,00,21,0.00
2007,10,06,00,22,0.00
2007,10,06,00,23,0.00
2007,10,06,00,24,0.00
2007,10,06,00,25,0.00
2007,10,06,00,26,0.00
2007,10,06,00,27,0.00
2007,10,06,00,28,0.00
2007,10,06,00,29,0.00
2007,10,06,00,30,0.00
2007,10,06,00,31,0.00
2007,10,06,00,32,0.00
2007,10,06,00,33,0.00
2007,10,06,00,34,0.00
2007,10,06,00,35,0.00
2007,10,06,00,36,0.00
2007,10,06,00,37,0.00
2007,10,06,00,38,0.00
2007,10,06,00,39,0.00
2007,10,06,00,40,0.00
2007,10,06,00,41,0.00
2007,10,06,00,42,0.00
2007,10,06,00,43,0.00
2007,10,06,00,44,0.00
2007,10,06,00,45,0.00
2007,10,06,00,46,0.00
2007,10,06,00,47,0.00
2007,10,06,00,48,0.00
2007,10,06,00,49,0.00
2007,10,06,00,50,0.00
2007,10,06,00,51,0.00
2007,10,06,00,52,0.00
2007,10,06,00,53,0.00
2007,10,06,00,54,0.00
2007,10,06,00,55,0.00
2007,10,06,00,56,0.00
2007,10,06,00,57,0.00
2007,10,06,00,58,0.00
2007,10,06,00,59,0.00
2007,10,06,01,00,0.00
2007,10,06,01,01,0.00
2007,10,06,01,02,0.00
2007,10,06,01,03,0.00
2007,10,06,01,04,0.00
2007,10,06,01,05,0.00
2007,10,06,01,06,0.00
2007,10,06,01,07,0.00
2007,10,06,01,08,0.00
2007,10,06,01,09,0.00
2007,10,06,01,10,0.00
2007,10,06,01,11,0.00
2007,10,06,01,12,0.00
2007,10,06,01,13,0.00
2007,10,06,01,14,0.00
2007,10,06,01,15,0.00
2007,10,06,01,16,0.00
2007,10,06,01,17,0.00
2007,10,06,01,18,0.00
2007,10,06,01,19,0.00
2007,10,06,01,20,0.00
2007,10,06,01,21,0.00
2007,10,06,01,22,0.00
2007,10,06,01,23,0.00
2007,10,06,01,24,0.00
2007,10,06,01,25,0.00
2007,10,06,01,26,0.00
2007,10,06,01,27,0.00
2007,10,06,01,28,0.00
2007,10,06,01,29,0.00
2007,10,06,01,30,0.00
2007,10,06,01,31,0.00
2007,10,06,01,32,0.00
2007,10,06,01,33,0.00
2007,10,06,01,34,0.00
2007,10,06,01,35,0.00
2007,10,06,01,36,0.00
2007,10,06,01,37,0.00
2007,10,06,01,38,0.00
2007,10,06,01,39,0.00
2007,10,06,01,40,0.00
2007,10,06,01,41,0.00
2007,10,06,01,42,0.00
2007,10,06,01,43,0.00
2007,10,06,01,44,0.00
2007,10,06,01,45,0.00
2007,10,06,01,46,0.00
2007,10,06,01,47,0.00
2007,10,06,01,48,0.00
2007,10,06,01,49,0.00
2007,10,06,01,50,0.00
2007,10,06,01,51,0.00
2007,10,06,01,52,0.00
2007,10,06,01,53,0.00
2007,10,06,01,54,0.00
2007,10,06,01,55,0.00
2007,10,06,01,56,0.00
2007,10,06,01,57,0.00
2007,10,06,01,58,0.00
2007,10,06,01,59,0.00
2007,10,06,02,00,0.00
2007,10,06,02,01,0.00
2007,10,06,02,02,0.00
2007,10,06,02,03,0.00
2007,10,06,02,04,0.00
2007,10,06,02,05,0.00
2007,10,06,02,06,0.00
2007,10,06,02,07,0.00
2007,10,06,02,08,0.00
2007,10,06,02,09,0.00
2007,10,06,02,10,0.00
2007,10,06,02,11,0.00
2007,10,06,02,12,0.00
2007,10,06,02,13,0.00
2007,10,06,02,14,0.00
2007,10,06,02,15,0.00
2007,10,06,02,16,0.00
2007,10,06,02,17,0.00
2007,10,06,02,18,0.00
2007,10,06,02,19,0.00
2007,10,06,02,20,0.00
2007,10,06,02,21,0.00
2007,10,06,02,22,0.00
2007,10,06,02,23,0.00
2007,10,06,02,24,0.00
2007,10,06,02,25,0.00
2007,10,06,02,26,0.00
2007,10,06,02,27,0.00
2007,10,06,02,28,0.00
2007,10,06,02,29,0.00
2007,10,06,02,30,0.00
2007,10,06,02,31,0.00
2007,10,06,02,32,0.00
2007,10,06,02,33,0.00
2007,10,06,02,34,0.00
2007,10,06,02,35,0.00
2007,10,06,02,36,0.00
2007,10,06,02,37,0.00
2007,10,06,02,38,0.00
2007,10,06,02,39,0.00
2007,10,06,02,40,0.00
2007,10,06,02,41,0.00
2007,10,06,02,42,0.00
2007,10,06,02,43,0.00
2007,10,06,02,44,0.00
2007,10,06,02,45,0.00
2007,10,06,02,46,0.00
2007,10,06,02,47,0.00
2007,10,06,02,48,0.00
2007,10,06,02,49,0.00
2007,10,06,02,50,0.00
2007,10,06,02,51,0.00
2007,10,06,02,52,0.00
2007,10,06,02,53,0.00
2007,10,06,02,54,0.00
2007,10,06,02,55,0.00
2007,10,06,02,56,0.00
2007,10,06,02,57,0.00
2007,10,06,02,58,0.00
2007,10,06,02,59,0.00
2007,10,06,03,00,0.00
2007,10,06,03,01,0.00
2007,10,06,03,02,0.00
2007,10,06,03,03,0.00
2007,10,06,03,04,0.00
2007,10,06,03,05,0.00
2007,10,06,03,06,0.00
2007,10,06,03,07,0.00
2007,10,06,03,08,0.00
2007,10,06,03,09,0.00
2007,10,06,03,10,0.00
2007,10,06,03,11,0.00
2007,10,06,03,12,0.00
2007,10,06,03,13,0.00
2007,10,06,03,14,0.00
2007,10,06,03,15,0.00
2007,10,06,03,16,0.00
2007,10,06,03,17,0.00
2007,10,06,03,18,0.00
2007,10,06,03,19,0.00
2007,10,06,03,20,0.00
2007,10,06,03,21,0.00
2007,10,06,03,22,0.00
2007,10,06,03,23,0.00
2007,10,06,03,24,0.00
2007,10,06,03,25,0.00
2007,10,06,03,26,0.00
2007,10,06,03,27,0.00
2007,10,06,03,28,0.00
2007,10,06,03,29,0.00
2007,10,06,03,30,0.00
2007,10,06,03,31,0.00
2007,10,06,03,32,0.00
2007,10,06,03,33,0.00
2007,10,06,03,34,0.00
2007,10,06,03,35,0.00
2007,10,06,03,36,0.00
2007,10,06,03,37,0.00
2007,10,06,03,38,0.00
2007,10,06,03,39,0.00
2007,10,06,03,40,0.00
2007,10,06,03,41,0.00
2007,10,06,03,42,0.00
2007,10,06,03,43,0.00
2007,10,06,03,44,0.00
2007,10,06,03,45,0.00
2007,10,06,03,46,0.00
2007,10,06,03,47,0.00
2007,10,06,03,48,0.00
2007,10,06,03,49,0.00
2007,10,06,03,50,0.00
2007,10,06,03,51,0.00
2007,10,06,03,52,0.00
2007,10,06,03,53,0.00
2007,10,06,03,54,0.00
2007,10,06,03,55,0.00
2007,10,06,03,56,0.00
2007,10,06,03,57,0.00
2007,10,06,03,58,0.00
2007,10,06,03,59,0.00
2007,10,06,04,00,0.00
2007,10,06,04,01,0.00
2007,10,06,04,02,0.00
2007,10,06,04,03,0.00
2007,10,06,04,04,0.00
2007,10,06,04,05,0.00
2007,10,06,04,06,0.00
2007,10,06,04,07,0.00
2007,10,06,04,08,0.00
2007,10,06,04,09,0.00
2007,10,06,04,10,0.00
2007,10,06,04,11,0.00
2007,10,06,04,12,0.00
2007,10,06,04,13,0.00
2007,10,06,04,14,0.00
2007,10,06,04,15,0.00
2007,10,06,04,16,0.00
2007,10,06,04,17,0.00
2007,10,06,04,18,0.00
2007,10,06,04,19,0.00
2007,10,06,04,20,0.00
2007,10,06,04,21,0.00
2007,10,06,04,22,0.00
2007,10,06,04,23,0.00
2007,10,06,04,24,0.00
2007,10,06,04,25,0.00
2007,10,06,04,26,0.00
2007,10,06,04,27,0.00
2007,10,06,04,28,0.00
2007,10,06,04,29,0.00
2007,10,06,04,30,0.00
2007,10,06,04,31,0.00
2007,10,06,04,32,0.00
2007,10,06,04,33,0.00
2007,10,06,04,34,0.00
2007,10,06,04,35,0.00
2007,10,06,04,36,0.00
2007,10,06,04,37,0.00
2007,10,06,04,38,0.00
2007,10,06,04,39,0.00
2007,10,06,04,40,0.00
2007,10,06,04,41,0.00
2007,10,06,04,42,0.00
2007,10,06,04,43,0.00
2007,10,06,04,44,0.00
2007,10,06,04,45,0.00
2007,10,06,04,46,0.00
2007,10,06,04,47,0.00
2007,10,06,04,48,0.00
2007,10,06,04,49,0.00
2007,10,06,04,50,0.00
2007,10,06,04,51,0.00
2007,10,06,04,52,0.00
2007,10,06,04,53,0.00
2007,10,06,04,54,0.00
2007,10,06,04,55,0.00
2007,10,06,04,56,0.00
2007,10,06,04,57,0.00
2007,10,06,04,58,0.00
2007,10,06,04,59,0.00
2007,10,06,05,00,0.00
2007,10,06,05,01,0.00
2007,10,06,05,02,0.00
2007,10,06,05,03,0.00
2007,10,06,05,04,0.00
2007,10,06,05,05,0.00
2007,10,06,05,06,0.00
2007,10,06,05,07,0.00
2007,10,06,05,08,0.00
2007,10,06,05,09,0.00
2007,10,06,05,10,0.00
2007,10,06,05,11,0.00
2007,10,06,05,12,0.00
2007,10,06,05,13,0.00
2007,10,06,05,14,0.00
2007,10,06,05,15,0.00
2007,10,06,05,16,0.00
2007,10,06,05,17,0.00
2007,10,06,05,18,0.00
2007,10,06,05,19,0.00
2007,10,06,05,20,0.00
2007,10,06,05,21,0.00
2007,10,06,05,22,0.00
2007,10,06,05,23,0.00
2007,10,06,05,24,0.00
2007,10,06,05,25,0.00
2007,10,06,05,26,0.00
2007,10,06,05,27,0.00
2007,10,06,05,28,0.00
2007,10,06,05,29,0.00
2007,10,06,05,30,0.00
2007,10,06,05,31,0.00
2007,10,06,05,32,0.00
2007,10,06,05,33,0.00
2007,10,06,05,34,0.00
2007,10,06,05,35,0.00
2007,10,06,05,36,0.00
2007,10,06,05,37,0.00
2007,10,06,05,38,0.00
2007,10,06,05,39,0.00
2007,10,06,05,40,0.00
2007,10,06,05,41,0.00
2007,10,06,05,42,0.00
2007,10,06,05,43,0.00
2007,10,06,05,44,0.00
2007,10,06,05,45,0.00
2007,10,06,05,46,0.00
2007,10,06,05,47,0.00
2007,10,06,05,48,0.00
2007,10,06,05,49,0.00
2007,10,06,05,50,0.00
2007,10,06,05,51,0.00
2007,10,06,05,52,0.00
2007,10,06,05,53,0.00
2007,10,06,05,54,0.00
2007,10,06,05,55,0.00
2007,10,06,05,56,0.00
2007,10,06,05,57,0.00
2007,10,06,05,58,0.00
2007,10,06,05,59,0.00
2007,10,06,06,00,0.00
2007,10,06,06,01,0.00
2007,10,06,06,02,0.00
2007,10,06,06,03,0.00
2007,10,06,06,04,0.00
2007,10,06,06,05,0.00
2007,10,06,06,06,0.00
2007,10,06,06,07,0.00
2007,10,06,06,08,0.00
2007,10,06,06,09,0.00
2007,10,06,06,10,0.00
2007,10,06,06,11,0.00
2007,10,06,06,12,0.00
2007,10,06,06,13,0.00
2007,10,06,06,14,0.00
2007,10,06,06,15,0.00
2007,10,06,06,16,0.00
2007,10,06,06,17,0.00
2007,10,06,06,18,0.00
2007,10,06,06,19,0.00
2007,10,06,06,20,0.00
2007,10,06,06,21,0.00
2007,10,06,06,22,0.00
2007,10,06,06,23,0.00
2007,10,06,06,24,0.00
2007,10,06,06,25,0.00
2007,10,06,06,26,0.00
2007,10,06,06,27,0.00
2007,10,06,06,28,0.00
2007,10,06,06,29,0.00
2007,10,06,06,30,0.00
2007,10,06,06,31,0.00
2007,10,06,06,32,0.00
2007,10,06,06,33,0.00
2007,10,06,06,34,0.00
2007,10,06,06,35,0.00
2007,10,06,06,36,0.00
2007,10,06,06,37,0.00
2007,10,06,06,38,0.00
2007,10,06,06,39,0.00
2007,10,06,06,40,0.00
2007,10,06,06,41,0.00
2007,10,06,06,42,0.00
2007,10,06,06,43,0.00
2007,10,06,06,44,0.00
2007,10,06,06,45,0.00
2007,10,06,06,46,0.00
2007,10,06,06,47,0.00
2007,10,06,06,48,0.00
2007,10,06,06,49,0.00
2007,10,06,06,50,0.00
2007,10,06,06,51,0.00
2007,10,06,06,52,0.00
2007,10,06,06,53,0.00
2007,10,06,06,54,0.00
2007,10,06,06,55,0.00
2007,10,06,06,56,0.00
2007,10,06,06,57,0.00
2007,10,06,06,58,0.00
2007,10,06,06,59,0.00
2007,10,06,07,00,0.00
2007,10,06,07,01,0.00
2007,10,06,07,02,0.00
2007,10,06,07,03,0.00
2007,10,06,07,04,0.00
2007,10,06,07,05,0.00
2007,10,06,07,06,0.00
2007,10,06,07,07,0.00
2007,10,06,07,08,0.00
2007,10,06,07,09,0.00
2007,10,06,07,10,0.00
2007,10,06,07,11,0.00
2007,10,06,07,12,0.00
2007,10,06,07,13,0.00
2007,10,06,07,14,0.00
2007,10,06,07,15,0.00
2007,10,06,07,16,0.00
2007,10,06,07,17,0.00
2007,10,06,07,18,0.00
2007,10,06,07,19,0.00
2007,10,06,07,20,0.00
2007,10,06,07,21,0.00
2007,10,06,07,22,0.00
2007,10,06,07,23,0.00
2007,10,06,07,24,0.00
2007,10,06,07,25,0.00
2007,10,06,07,26,0.00
2007,10,06,07,27,0.00
2007,10,06,07,28,0.00
2007,10,06,07,29,0.00
2007,10,06,07,30,0.00
2007,10,06,07,31,0.00
2007,10,06,07,32,0.00
2007,10,06,07,33,0.00
2007,10,06,07,34,0.00
2007,10,06,07,35,1.20
2007,10,06,07,36,5.00
2007,10,06,07,37,5.00
2007,10,06,07,38,6.60
2007,10,06,07,39,7.00
2007,10,06,07,40,9.00
2007,10,06,07,41,9.00
2007,10,06,07,42,9.00
2007,10,06,07,43,9.00
2007,10,06,07,44,7.40
2007,10,06,07,45,7.00
2007,10,06,07,46,7.00
2007,10,06,07,47,7.00
2007,10,06,07,48,7.00
2007,10,06,07,49,7.00
2007,10,06,07,50,7.00
2007,10,06,07,51,7.00
2007,10,06,07,52,7.00
2007,10,06,07,53,7.00
2007,10,06,07,54,7.00
2007,10,06,07,55,7.00
2007,10,06,07,56,7.00
2007,10,06,07,57,7.00
2007,10,06,07,58,7.50
2007,10,06,07,59,9.00
2007,10,06,08,00,9.00
2007,10,06,08,01,9.00
2007,10,06,08,02,10.50
2007,10,06,08,03,11.00
2007,10,06,08,04,11.00
2007,10,06,08,05,11.00
2007,10,06,08,06,10.00
2007,10,06,08,07,9.00
2007,10,06,08,08,9.00
2007,10,06,08,09,9.00
2007,10,06,08,10,9.60
2007,10,06,08,11,11.00
2007,10,06,08,12,11.00
2007,10,06,08,13,11.00
2007,10,06,08,14,11.00
2007,10,06,08,15,11.10
2007,10,06,08,16,12.00
2007,10,06,08,17,12.00
2007,10,06,08,18,13.20
2007,10,06,08,19,14.00
2007,10,06,08,20,16.00
2007,10,06,08,21,16.00
2007,10,06,08,22,16.00
2007,10,06,08,23,15.20
2007,10,06,08,24,14.00
2007,10,06,08,25,14.00
2007,10,06,08,26,14.00
2007,10,06,08,27,16.00
2007,10,06,08,28,16.60
2007,10,06,08,29,18.00
2007,10,06,08,30,18.00
2007,10,06,08,31,16.40
2007,10,06,08,32,18.00
2007,10,06,08,33,18.00
2007,10,06,08,34,18.40
2007,10,06,08,35,20.10
2007,10,06,08,36,23.80
2007,10,06,08,37,25.00
2007,10,06,08,38,28.30
2007,10,06,08,39,33.00
2007,10,06,08,40,32.60
2007,10,06,08,41,29.80
2007,10,06,08,42,29.30
2007,10,06,08,43,30.00
2007,10,06,08,44,29.90
2007,10,06,08,45,27.40
2007,10,06,08,46,25.60
2007,10,06,08,47,24.00
2007,10,06,08,48,21.50
2007,10,06,08,49,19.40
2007,10,06,08,50,18.00
2007,10,06,08,51,18.00
2007,10,06,08,52,18.50
2007,10,06,08,53,20.30
2007,10,06,08,54,22.60
2007,10,06,08,55,23.00
2007,10,06,08,56,25.40
2007,10,06,08,57,29.00
2007,10,06,08,58,33.40
2007,10,06,08,59,37.50
2007,10,06,09,00,43.90
2007,10,06,09,01,56.00
2007,10,06,09,02,64.10
2007,10,06,09,03,69.00
2007,10,06,09,04,69.00
2007,10,06,09,05,69.00
2007,10,06,09,06,65.70
2007,10,06,09,07,67.10
2007,10,06,09,08,67.80
2007,10,06,09,09,58.10
2007,10,06,09,10,47.30
2007,10,06,09,11,45.40
2007,10,06,09,12,46.90
2007,10,06,09,13,48.90
2007,10,06,09,14,46.80
2007,10,06,09,15,43.80
2007,10,06,09,16,36.40
2007,10,06,09,17,30.60
2007,10,06,09,18,34.70
2007,10,06,09,19,41.20
2007,10,06,09,20,38.80
2007,10,06,09,21,35.00
2007,10,06,09,22,27.90
2007,10,06,09,23,23.00
2007,10,06,09,24,25.80
2007,10,06,09,25,29.50
2007,10,06,09,26,26.80
2007,10,06,09,27,20.90
2007,10,06,09,28,16.90
2007,10,06,09,29,17.30
2007,10,06,09,30,16.10
2007,10,06,09,31,13.90
2007,10,06,09,32,12.00
2007,10,06,09,33,11.60
2007,10,06,09,34,11.00
2007,10,06,09,35,11.00
2007,10,06,09,36,11.90
2007,10,06,09,37,22.10
2007,10,06,09,38,32.20
2007,10,06,09,39,42.80
2007,10,06,09,40,52.60
2007,10,06,09,41,63.20
2007,10,06,09,42,69.80
2007,10,06,09,43,71.50
2007,10,06,09,44,65.10
2007,10,06,09,45,52.80
2007,10,06,09,46,47.00
2007,10,06,09,47,32.30
2007,10,06,09,48,26.00
2007,10,06,09,49,30.00
2007,10,06,09,50,30.70
2007,10,06,09,51,34.50
2007,10,06,09,52,40.30
2007,10,06,09,53,45.50
2007,10,06,09,54,50.50
2007,10,06,09,55,56.00
2007,10,06,09,56,58.10
2007,10,06,09,57,61.10
2007,10,06,09,58,58.60
2007,10,06,09,59,56.20
2007,10,06,10,00,52.50
2007,10,06,10,01,43.20
2007,10,06,10,02,38.20
2007,10,06,10,03,35.00
2007,10,06,10,04,38.00
2007,10,06,10,05,43.80
2007,10,06,10,06,42.30
2007,10,06,10,07,44.50
2007,10,06,10,08,45.20
2007,10,06,10,09,43.00
2007,10,06,10,10,42.00
2007,10,06,10,11,42.00
2007,10,06,10,12,56.40
2007,10,06,10,13,61.20
2007,10,06,10,14,53.80
2007,10,06,10,15,46.90
2007,10,06,10,16,42.40
2007,10,06,10,17,40.40
2007,10,06,10,18,47.80
2007,10,06,10,19,53.80
2007,10,06,10,20,56.90
2007,10,06,10,21,59.20
2007,10,06,10,22,56.10
2007,10,06,10,23,46.00
2007,10,06,10,24,39.60
2007,10,06,10,25,36.50
2007,10,06,10,26,35.00
2007,10,06,10,27,37.60
2007,10,06,10,28,44.80
2007,10,06,10,29,44.00
2007,10,06,10,30,43.40
2007,10,06,10,31,37.50
2007,10,06,10,32,33.00
2007,10,06,10,33,35.40
2007,10,06,10,34,39.60
2007,10,06,10,35,42.00
2007,10,06,10,36,50.00
2007,10,06,10,37,43.20
2007,10,06,10,38,40.40
2007,10,06,10,39,39.00
2007,10,06,10,40,37.20
2007,10,06,10,41,39.60
2007,10,06,10,42,33.40
2007,10,06,10,43,35.00
2007,10,06,10,44,33.30
2007,10,06,10,45,30.80
2007,10,06,10,46,30.00
2007,10,06,10,47,34.60
2007,10,06,10,48,35.80
2007,10,06,10,49,34.60
2007,10,06,10,50,35.80
2007,10,06,10,51,33.40
2007,10,06,10,52,32.10
2007,10,06,10,53,32.00
2007,10,06,10,54,33.30
2007,10,06,10,55,39.00
2007,10,06,10,56,36.40
2007,10,06,10,57,33.40
2007,10,06,10,58,35.00
2007,10,06,10,59,37.00
2007,10,06,11,00,37.60
2007,10,06,11,01,39.00
2007,10,06,11,02,39.50
2007,10,06,11,03,40.00
2007,10,06,11,04,44.00
2007,10,06,11,05,46.20
2007,10,06,11,06,47.00
2007,10,06,11,07,47.00
2007,10,06,11,08,47.00
2007,10,06,11,09,54.30
2007,10,06,11,10,62.00
2007,10,06,11,11,56.10
2007,10,06,11,12,45.90
2007,10,06,11,13,42.00
2007,10,06,11,14,39.40
2007,10,06,11,15,41.60
2007,10,06,11,16,40.30
2007,10,06,11,17,32.40
2007,10,06,11,18,28.40
2007,10,06,11,19,27.10
2007,10,06,11,20,33.40
2007,10,06,11,21,39.60
2007,10,06,11,22,39.00
2007,10,06,11,23,39.00
2007,10,06,11,24,36.40
2007,10,06,11,25,33.00
2007,10,06,11,26,35.40
2007,10,06,11,27,39.80
2007,10,06,11,28,46.90
2007,10,06,11,29,57.10
2007,10,06,11,30,67.00
2007,10,06,11,31,57.60
2007,10,06,11,32,47.90
2007,10,06,11,33,47.00
2007,10,06,11,34,44.60
2007,10,06,11,35,47.50
2007,10,06,11,36,48.10
2007,10,06,11,37,46.40
2007,10,06,11,38,46.80
2007,10,06,11,39,46.20
2007,10,06,11,40,46.20
2007,10,06,11,41,37.90
2007,10,06,11,42,31.70
2007,10,06,11,43,30.00
2007,10,06,11,44,30.00
2007,10,06,11,45,30.00
2007,10,06,11,46,37.00
2007,10,06,11,47,38.80
2007,10,06,11,48,45.60
2007,10,06,11,49,48.30
2007,10,06,11,50,49.00
2007,10,06,11,51,49.00
2007,10,06,11,52,54.00
2007,10,06,11,53,53.70
2007,10,06,11,54,52.00
2007,10,06,11,55,51.00
2007,10,06,11,56,49.60
2007,10,06,11,57,49.20
2007,10,06,11,58,54.00
2007,10,06,11,59,52.90
2007,10,06,12,00,49.90
2007,10,06,12,01,46.70
2007,10,06,12,02,44.20
2007,10,06,12,03,44.00
2007,10,06,12,04,43.50
2007,10,06,12,05,42.80
2007,10,06,12,06,45.70
2007,10,06,12,07,48.30
2007,10,06,12,08,52.80
2007,10,06,12,09,49.10
2007,10,06,12,10,51.40
2007,10,06,12,11,50.40
2007,10,06,12,12,47.00
2007,10,06,12,13,46.20
2007,10,06,12,14,42.80
2007,10,06,12,15,39.90
2007,10,06,12,16,39.80
2007,10,06,12,17,46.20
2007,10,06,12,18,48.10
2007,10,06,12,19,42.70
2007,10,06,12,20,37.00
2007,10,06,12,21,38.70
2007,10,06,12,22,36.40
2007,10,06,12,23,38.30
2007,10,06,12,24,47.00
2007,10,06,12,25,52.60
2007,10,06,12,26,47.00
2007,10,06,12,27,46.50
2007,10,06,12,28,52.80
2007,10,06,12,29,52.30
2007,10,06,12,30,44.50
2007,10,06,12,31,40.20
2007,10,06,12,32,43.40
2007,10,06,12,33,46.00
2007,10,06,12,34,44.60
2007,10,06,12,35,41.00
2007,10,06,12,36,39.40
2007,10,06,12,37,39.90
2007,10,06,12,38,42.00
2007,10,06,12,39,39.80
2007,10,06,12,40,40.10
2007,10,06,12,41,44.20
2007,10,06,12,42,50.90
2007,10,06,12,43,61.80
2007,10,06,12,44,69.50
2007,10,06,12,45,58.90
2007,10,06,12,46,49.00
2007,10,06,12,47,49.90
2007,10,06,12,48,51.00
2007,10,06,12,49,49.20
2007,10,06,12,50,46.90
2007,10,06,12,51,46.20
2007,10,06,12,52,47.00
2007,10,06,12,53,44.10
2007,10,06,12,54,45.10
2007,10,06,12,55,48.80
2007,10,06,12,56,53.40
2007,10,06,12,57,55.40
2007,10,06,12,58,54.90
2007,10,06,12,59,56.00
2007,10,06,13,00,62.90
2007,10,06,13,01,63.00
2007,10,06,13,02,57.50
2007,10,06,13,03,53.70
2007,10,06,13,04,53.00
2007,10,06,13,05,56.20
2007,10,06,13,06,65.40
2007,10,06,13,07,74.00
2007,10,06,13,08,70.40
2007,10,06,13,09,63.00
2007,10,06,13,10,57.40
2007,10,06,13,11,49.70
2007,10,06,13,12,53.10
2007,10,06,13,13,62.00
2007,10,06,13,14,67.00
2007,10,06,13,15,66.30
2007,10,06,13,16,65.00
2007,10,06,13,17,65.00
2007,10,06,13,18,63.20
2007,10,06,13,19,62.50
2007,10,06,13,20,54.00
2007,10,06,13,21,55.80
2007,10,06,13,22,60.00
2007,10,06,13,23,60.00
2007,10,06,13,24,58.20
2007,10,06,13,25,63.10
2007,10,06,13,26,65.00
2007,10,06,13,27,67.10
2007,10,06,13,28,71.10
2007,10,06,13,29,74.40
2007,10,06,13,30,69.80
2007,10,06,13,31,59.50
2007,10,06,13,32,55.40
2007,10,06,13,33,54.80
2007,10,06,13,34,54.80
2007,10,06,13,35,54.00
2007,10,06,13,36,51.20
2007,10,06,13,37,54.20
2007,10,06,13,38,58.00
2007,10,06,13,39,56.10
2007,10,06,13,40,56.50
2007,10,06,13,41,60.60
2007,10,06,13,42,56.40
2007,10,06,13,43,57.50
2007,10,06,13,44,69.90
2007,10,06,13,45,75.30
2007,10,06,13,46,77.70
2007,10,06,13,47,76.20
2007,10,06,13,48,72.80
2007,10,06,13,49,76.80
2007,10,06,13,50,76.00
2007,10,06,13,51,79.50
2007,10,06,13,52,83.00
2007,10,06,13,53,78.10
2007,10,06,13,54,74.40
2007,10,06,13,55,80.20
2007,10,06,13,56,86.00
2007,10,06,13,57,86.00
2007,10,06,13,58,88.80
2007,10,06,13,59,90.00
2007,10,06,14,00,90.00
2007,10,06,14,01,91.00
2007,10,06,14,02,89.90
2007,10,06,14,03,89.10
2007,10,06,14,04,90.70
2007,10,06,14,05,91.00
2007,10,06,14,06,95.00
2007,10,06,14,07,89.20
2007,10,06,14,08,87.90
2007,10,06,14,09,95.10
2007,10,06,14,10,105.40
2007,10,06,14,11,108.80
2007,10,06,14,12,109.10
2007,10,06,14,13,111.00
2007,10,06,14,14,110.20
2007,10,06,14,15,111.40
2007,10,06,14,16,116.80
2007,10,06,14,17,123.60
2007,10,06,14,18,123.00
2007,10,06,14,19,124.00
2007,10,06,14,20,129.20
2007,10,06,14,21,133.50
2007,10,06,14,22,134.20
2007,10,06,14,23,130.80
2007,10,06,14,24,132.00
2007,10,06,14,25,134.50
2007,10,06,14,26,142.80
2007,10,06,14,27,142.10
2007,10,06,14,28,135.30
2007,10,06,14,29,128.90
2007,10,06,14,30,120.50
2007,10,06,14,31,116.80
2007,10,06,14,32,113.60
2007,10,06,14,33,108.90
2007,10,06,14,34,104.90
2007,10,06,14,35,98.00
2007,10,06,14,36,102.80
2007,10,06,14,37,109.50
2007,10,06,14,38,117.00
2007,10,06,14,39,120.60
2007,10,06,14,40,120.10
2007,10,06,14,41,114.00
2007,10,06,14,42,110.70
2007,10,06,14,43,109.00
2007,10,06,14,44,109.90
2007,10,06,14,45,112.40
2007,10,06,14,46,111.20
2007,10,06,14,47,107.10
2007,10,06,14,48,100.00
2007,10,06,14,49,100.80
2007,10,06,14,50,103.10
2007,10,06,14,51,104.00
2007,10,06,14,52,104.00
2007,10,06,14,53,94.60
2007,10,06,14,54,86.60
2007,10,06,14,55,78.90
2007,10,06,14,56,74.80
2007,10,06,14,57,74.00
2007,10,06,14,58,76.40
2007,10,06,14,59,80.90
2007,10,06,15,00,79.00
2007,10,06,15,01,77.70
2007,10,06,15,02,73.50
2007,10,06,15,03,69.70
2007,10,06,15,04,65.20
2007,10,06,15,05,67.20
2007,10,06,15,06,69.20
2007,10,06,15,07,71.80
2007,10,06,15,08,76.80
2007,10,06,15,09,81.80
2007,10,06,15,10,84.00
2007,10,06,15,11,84.00
2007,10,06,15,12,84.00
2007,10,06,15,13,86.00
2007,10,06,15,14,89.30
2007,10,06,15,15,90.00
2007,10,06,15,16,91.00
2007,10,06,15,17,93.30
2007,10,06,15,18,95.00
2007,10,06,15,19,95.00
2007,10,06,15,20,95.00
2007,10,06,15,21,91.50
2007,10,06,15,22,88.00
2007,10,06,15,23,82.10
2007,10,06,15,24,75.90
2007,10,06,15,25,72.90
2007,10,06,15,26,73.40
2007,10,06,15,27,74.00
2007,10,06,15,28,71.80
2007,10,06,15,29,68.50
2007,10,06,15,30,66.20
2007,10,06,15,31,66.20
2007,10,06,15,32,68.50
2007,10,06,15,33,69.90
2007,10,06,15,34,74.10
2007,10,06,15,35,76.20
2007,10,06,15,36,77.00
2007,10,06,15,37,76.50
2007,10,06,15,38,73.00
2007,10,06,15,39,69.80
2007,10,06,15,40,63.00
2007,10,06,15,41,62.00
2007,10,06,15,42,58.00
2007,10,06,15,43,58.00
2007,10,06,15,44,58.00
2007,10,06,15,45,56.00
2007,10,06,15,46,55.80
2007,10,06,15,47,54.00
2007,10,06,15,48,54.00
2007,10,06,15,49,54.00
2007,10,06,15,50,55.40
2007,10,06,15,51,54.00
2007,10,06,15,52,54.20
2007,10,06,15,53,56.60
2007,10,06,15,54,59.00
2007,10,06,15,55,60.00
2007,10,06,15,56,61.80
2007,10,06,15,57,62.80
2007,10,06,15,58,64.10
2007,10,06,15,59,69.00
2007,10,06,16,00,69.00
2007,10,06,16,01,67.60
2007,10,06,16,02,67.00
2007,10,06,16,03,65.30
2007,10,06,16,04,65.40
2007,10,06,16,05,67.00
2007,10,06,16,06,67.00
2007,10,06,16,07,68.20
2007,10,06,16,08,69.90
2007,10,06,16,09,72.00
2007,10,06,16,10,76.70
2007,10,06,16,11,79.00
2007,10,06,16,12,81.10
2007,10,06,16,13,84.90
2007,10,06,16,14,87.80
2007,10,06,16,15,83.20
2007,10,06,16,16,75.40
2007,10,06,16,17,67.90
2007,10,06,16,18,63.80
2007,10,06,16,19,63.00
2007,10,06,16,20,64.90
2007,10,06,16,21,67.10
2007,10,06,16,22,69.00
2007,10,06,16,23,67.20
2007,10,06,16,24,66.00
2007,10,06,16,25,67.00
2007,10,06,16,26,69.00
2007,10,06,16,27,69.00
2007,10,06,16,28,69.30
2007,10,06,16,29,73.10
2007,10,06,16,30,81.70
2007,10,06,16,31,89.20
2007,10,06,16,32,86.00
2007,10,06,16,33,80.40
2007,10,06,16,34,75.00
2007,10,06,16,35,70.00
2007,10,06,16,36,67.00
2007,10,06,16,37,69.60
2007,10,06,16,38,77.00
2007,10,06,16,39,91.50
2007,10,06,16,40,104.20
2007,10,06,16,41,112.60
2007,10,06,16,42,116.40
2007,10,06,16,43,113.60
2007,10,06,16,44,105.00
2007,10,06,16,45,99.00
2007,10,06,16,46,94.20
2007,10,06,16,47,93.00
2007,10,06,16,48,93.00
2007,10,06,16,49,93.00
2007,10,06,16,50,102.60
2007,10,06,16,51,96.60
2007,10,06,16,52,88.90
2007,10,06,16,53,84.30
2007,10,06,16,54,83.00
2007,10,06,16,55,83.90
2007,10,06,16,56,83.70
2007,10,06,16,57,78.60
2007,10,06,16,58,77.90
2007,10,06,16,59,80.10
2007,10,06,17,00,81.00
2007,10,06,17,01,77.20
2007,10,06,17,02,73.70
2007,10,06,17,03,67.20
2007,10,06,17,04,60.80
2007,10,06,17,05,54.90
2007,10,06,17,06,48.50
2007,10,06,17,07,42.00
2007,10,06,17,08,41.80
2007,10,06,17,09,39.80
2007,10,06,17,10,39.00
2007,10,06,17,11,37.70
2007,10,06,17,12,33.80
2007,10,06,17,13,30.60
2007,10,06,17,14,30.40
2007,10,06,17,15,33.10
2007,10,06,17,16,35.00
2007,10,06,17,17,36.10
2007,10,06,17,18,37.00
2007,10,06,17,19,37.00
2007,10,06,17,20,36.10
2007,10,06,17,21,29.90
2007,10,06,17,22,22.50
2007,10,06,17,23,17.20
2007,10,06,17,24,14.20
2007,10,06,17,25,12.00
2007,10,06,17,26,12.00
2007,10,06,17,27,12.70
2007,10,06,17,28,14.00
2007,10,06,17,29,15.40
2007,10,06,17,30,16.00
2007,10,06,17,31,18.10
2007,10,06,17,32,19.80
2007,10,06,17,33,24.20
2007,10,06,17,34,29.40
2007,10,06,17,35,33.80
2007,10,06,17,36,35.00
2007,10,06,17,37,35.00
2007,10,06,17,38,33.70